(59568) = 1999 JW47 = 2000 SO68

Discovered at Socorro on 1999-05-10 by LINEAR.

Orbit

Orbit type: Main Belt

Note: WebGL enabled browser required.

epoch2024-03-31.0
epoch JD2460400.5
perihelion date2020-09-20.45391
perihelion JD2459112.95391
argument of perihelion (°)260.03897
ascending node (°)22.11752
inclination (°)3.63043
eccentricity0.0888973
perihelion distance (AU)2.3630133
Tisserand w.r.t. Jupiter3.4
ΔV w.r.t. Earth (km/sec)9.7
semimajor axis (AU)2.5935752
mean anomaly (°)303.82156
mean daily motion (°/day)0.23596950
aphelion distance (AU)2.824
period (years)4.18
P-vector [x]0.20983832
P-vector [y]-0.87042079
P-vector [z]-0.44534876
Q-vector [x]0.97744540
Q-vector [y]0.19785758
Q-vector [z]0.07384357
absolute magnitude15.13
phase slope0.15
uncertainty0
referenceE2024-GI3
observations used1637
oppositions19
arc length (days)9110
first opposition used1999
last opposition used2024
residual rms (arc-secs)0.65
perturbers coarse indicatorM-v
perturbers precise indicator003Ek
first observation date used1999-04-27.0
last observation date used2024-04-04.0
computer nameMPCLINUX
JD of orbit computation2456966.853766
perihelion JD uncertainty (days)1.2007E-04
argument of perihelion uncertainty (°)6.4022E-05
ascending node uncertainty (°)5.8472E-05
inclination uncertainty (°)4.3845E-06
eccentricity uncertainty 3.2382E-08
perihelion distance uncertainty (AU)8.3614E-08
Minimum Orbit Intersection Distances (in AU)
for orbit epoch: 2460400.5, reference: E2024-GI3
Mercury1.9026
Venus1.63612
Earth1.34981
Mars0.88787
Jupiter2.27357
Saturn6.2336
Uranus15.7254
Neptune27.114

Observations

1643 total observations over interval: 1999 04 27.17972 – 2024 03 19.631021
These data are available for download (format description).

Date (UT) J2000 RA J2000 Dec Magn Location Ref
1999 04 27.17972 15 40 20.703 -22 20 45.32 16.81 J I02 – Cerro Tololo Observatory, La Serena--2MASS MPS 79565
1999 05 09.33297 15 29 39.75 -22 09 11.8 18.0 R 699 – Lowell Observatory-LONEOS MPS 5595
1999 05 09.34316 15 29 39.25 -22 09 10.2   699 – Lowell Observatory-LONEOS MPS 5595
1999 05 09.35333 15 29 38.60 -22 09 09.4   699 – Lowell Observatory-LONEOS MPS 5595
1999 05 10.28363 15 28 44.88 -22 07 42.8 18.3   704 – Lincoln Laboratory ETS, New Mexico MPS 5050
1999 05 10.29586 15 28 44.24 -22 07 42.6 18.3   704 – Lincoln Laboratory ETS, New Mexico MPS 5050
1999 05 10.30804 15 28 43.50 -22 07 40.8 18.4   704 – Lincoln Laboratory ETS, New Mexico MPS 5050
1999 05 10.32023 15 28 42.76 -22 07 41.3 18.6   704 – Lincoln Laboratory ETS, New Mexico MPS 5050
1999 05 10.33240 15 28 41.87 -22 07 37.8 19.0   704 – Lincoln Laboratory ETS, New Mexico MPS 5050
1999 05 13.30310 15 25 48.17 -22 02 38.6 18.4   704 – Lincoln Laboratory ETS, New Mexico MPS 5050
1999 05 13.31808 15 25 47.21 -22 02 35.3 18.6   704 – Lincoln Laboratory ETS, New Mexico MPS 5050
1999 05 13.33311 15 25 46.38 -22 02 34.2 18.4   704 – Lincoln Laboratory ETS, New Mexico MPS 5050
1999 05 13.34816 15 25 45.42 -22 02 30.6 18.4   704 – Lincoln Laboratory ETS, New Mexico MPS 5050
1999 05 13.36310 15 25 44.44 -22 02 30.4 18.8   704 – Lincoln Laboratory ETS, New Mexico MPS 5050
1999 05 18.33244 15 20 51.24 -21 52 47.2 17.7 R 699 – Lowell Observatory-LONEOS MPS 5595
1999 05 18.35280 15 20 49.99 -21 52 44.8   699 – Lowell Observatory-LONEOS MPS 5595
1999 05 18.37318 15 20 48.77 -21 52 42.1   699 – Lowell Observatory-LONEOS MPS 5595
1999 06 15.17176 14 59 10.48 -20 52 48.3 18.9   704 – Lincoln Laboratory ETS, New Mexico MPS 17573
1999 06 15.18392 14 59 10.14 -20 52 46.5 19.0   704 – Lincoln Laboratory ETS, New Mexico MPS 17573
1999 06 15.19605 14 59 09.78 -20 52 44.7 19.6   704 – Lincoln Laboratory ETS, New Mexico MPS 17573
1999 06 15.20826 14 59 09.37 -20 52 44.1 19.2   704 – Lincoln Laboratory ETS, New Mexico MPS 17573
1999 06 15.22039 14 59 09.07 -20 52 43.5 19.3   704 – Lincoln Laboratory ETS, New Mexico MPS 17573
2000 09 05.26453 01 07 42.08 +05 18 55.0 18.4   704 – Lincoln Laboratory ETS, New Mexico MPS 19866
2000 09 05.27757 01 07 41.61 +05 18 54.0 19.1   704 – Lincoln Laboratory ETS, New Mexico MPS 19866
2000 09 05.29130 01 07 41.19 +05 18 51.2 18.9   704 – Lincoln Laboratory ETS, New Mexico MPS 19866
2000 09 05.30438 01 07 40.75 +05 18 51.3 19.5   704 – Lincoln Laboratory ETS, New Mexico MPS 19866
2000 09 05.31751 01 07 40.29 +05 18 49.1 19.4   704 – Lincoln Laboratory ETS, New Mexico MPS 19866
2000 09 24.33816 00 54 02.53 +04 17 37.5 18.5   704 – Lincoln Laboratory ETS, New Mexico MPS 19866
2000 09 24.35305 00 54 01.67 +04 17 33.6 18.3   704 – Lincoln Laboratory ETS, New Mexico MPS 19866
2000 09 24.36829 00 54 00.83 +04 17 29.6 18.5   704 – Lincoln Laboratory ETS, New Mexico MPS 19866
2000 09 24.38325 00 54 00.07 +04 17 26.0 18.3   704 – Lincoln Laboratory ETS, New Mexico MPS 19866
2000 09 24.39824 00 53 59.21 +04 17 22.8 18.8   704 – Lincoln Laboratory ETS, New Mexico MPS 19866
2000 09 26.32202 00 52 18.17 +04 09 36.5 18.0 R 699 – Lowell Observatory-LONEOS MPS 26428
2000 09 26.32881 00 52 17.79 +04 09 34.7 18.0   704 – Lincoln Laboratory ETS, New Mexico MPS 19866
2000 09 26.34046 00 52 17.16 +04 09 31.8   699 – Lowell Observatory-LONEOS MPS 26428
2000 09 26.34333 00 52 17.01 +04 09 31.4 18.8   704 – Lincoln Laboratory ETS, New Mexico MPS 19866
2000 09 26.35797 00 52 16.20 +04 09 27.0 19.1   704 – Lincoln Laboratory ETS, New Mexico MPS 19866
2000 09 26.35892 00 52 16.08 +04 09 27.2   699 – Lowell Observatory-LONEOS MPS 26428
2000 09 26.37283 00 52 15.35 +04 09 23.6 19.0   704 – Lincoln Laboratory ETS, New Mexico MPS 19866
2000 09 26.37737 00 52 15.13 +04 09 22.7   699 – Lowell Observatory-LONEOS MPS 26428
2000 09 26.38747 00 52 14.61 +04 09 21.0 19.1   704 – Lincoln Laboratory ETS, New Mexico MPS 19866
2000 10 01.24695 00 47 52.27 +03 49 10.0 18.1   704 – Lincoln Laboratory ETS, New Mexico MPS 19866
2000 10 01.26207 00 47 51.42 +03 49 06.2 19.1   704 – Lincoln Laboratory ETS, New Mexico MPS 19866
2000 10 01.27717 00 47 50.55 +03 49 02.4 18.3   704 – Lincoln Laboratory ETS, New Mexico MPS 19866
2000 10 01.29747 00 47 49.39 +03 48 57.3 18.4   704 – Lincoln Laboratory ETS, New Mexico MPS 19866
2000 10 01.31092 00 47 48.67 +03 48 54.6 18.0 R 699 – Lowell Observatory-LONEOS MPS 20794
2000 10 01.31856 00 47 48.21 +03 48 52.2 18.0   704 – Lincoln Laboratory ETS, New Mexico MPS 19866
2000 10 01.33090 00 47 47.52 +03 48 49.2   699 – Lowell Observatory-LONEOS MPS 20794
2000 10 01.35087 00 47 46.39 +03 48 44.4   699 – Lowell Observatory-LONEOS MPS 20794
2000 10 01.37092 00 47 45.25 +03 48 38.7   699 – Lowell Observatory-LONEOS MPS 20794
2000 10 02.36947 00 46 50.61 +03 44 27.0 18.7   704 – Lincoln Laboratory ETS, New Mexico MPS 19866
2000 10 02.38441 00 46 49.76 +03 44 23.9 18.4   704 – Lincoln Laboratory ETS, New Mexico MPS 19866
2000 10 02.39955 00 46 48.88 +03 44 20.5 18.4   704 – Lincoln Laboratory ETS, New Mexico MPS 19866
2000 10 02.41481 00 46 48.05 +03 44 16.8 18.9   704 – Lincoln Laboratory ETS, New Mexico MPS 19866
2000 10 02.42972 00 46 47.22 +03 44 12.5 18.6   704 – Lincoln Laboratory ETS, New Mexico MPS 19866
2000 10 05.23423 00 44 13.97 +03 32 28.5 18.1   704 – Lincoln Laboratory ETS, New Mexico MPS 19866
2000 10 05.23435 00 44 13.96 +03 32 28.7 17.9   704 – Lincoln Laboratory ETS, New Mexico MPS 19866
2000 10 05.24955 00 44 13.11 +03 32 23.1 19.1   704 – Lincoln Laboratory ETS, New Mexico MPS 19866
2000 10 05.24967 00 44 13.11 +03 32 25.0 18.4   704 – Lincoln Laboratory ETS, New Mexico MPS 19866
2000 10 05.28013 00 44 11.37 +03 32 18.2 18.8   704 – Lincoln Laboratory ETS, New Mexico MPS 19866
2000 10 05.28025 00 44 11.35 +03 32 17.3 18.5   704 – Lincoln Laboratory ETS, New Mexico MPS 19866
2000 10 05.29540 00 44 10.53 +03 32 12.8 17.8   704 – Lincoln Laboratory ETS, New Mexico MPS 19866
2000 10 05.29552 00 44 10.52 +03 32 13.8 18.3   704 – Lincoln Laboratory ETS, New Mexico MPS 19866
2000 11 02.20679 00 23 08.28 +02 03 38.6 19.1   704 – Lincoln Laboratory ETS, New Mexico MPS 20794
2000 11 02.22082 00 23 07.81 +02 03 37.0 18.9   704 – Lincoln Laboratory ETS, New Mexico MPS 20794
2000 11 02.23469 00 23 07.46 +02 03 37.2 18.9   704 – Lincoln Laboratory ETS, New Mexico MPS 20794
2000 11 02.24826 00 23 06.97 +02 03 34.8 19.7   704 – Lincoln Laboratory ETS, New Mexico MPS 20794
2000 11 02.26182 00 23 06.52 +02 03 32.7 19.6   704 – Lincoln Laboratory ETS, New Mexico MPS 20794
2001 12 19.46603 07 45 49.68 +26 37 22.2 18.9   704 – Lincoln Laboratory ETS, New Mexico MPS 43068
2001 12 19.48117 07 45 48.95 +26 37 24.6 19.2   704 – Lincoln Laboratory ETS, New Mexico MPS 43068
2001 12 19.49653 07 45 48.21 +26 37 26.9 19.3   704 – Lincoln Laboratory ETS, New Mexico MPS 43068
2001 12 19.51167 07 45 47.51 +26 37 30.8 19.3   704 – Lincoln Laboratory ETS, New Mexico MPS 43068
2001 12 19.52691 07 45 46.74 +26 37 32.9 19.3   704 – Lincoln Laboratory ETS, New Mexico MPS 43068
2001 12 20.265190 07 45 11.740 +26 39 50.61 19.32 V 645 – Apache Point-Sloan Digital Sky Survey MPS 79565
2001 12 20.268662 07 45 11.566 +26 39 51.27 19.98   645 – Apache Point-Sloan Digital Sky Survey MPS 79565
2002 01 14.23444 07 20 24.77 +27 45 22.0 18.7   704 – Lincoln Laboratory ETS, New Mexico MPS 48623
2002 01 14.24954 07 20 23.78 +27 45 23.4 18.7   704 – Lincoln Laboratory ETS, New Mexico MPS 48623
2002 01 14.26466 07 20 22.80 +27 45 25.3 19.0   704 – Lincoln Laboratory ETS, New Mexico MPS 48623
2002 01 14.28377 07 20 21.55 +27 45 27.2 19.1   704 – Lincoln Laboratory ETS, New Mexico MPS 48623
2002 01 14.29910 07 20 20.55 +27 45 29.0 19.1   704 – Lincoln Laboratory ETS, New Mexico MPS 48623
2002 01 15.24342 07 19 20.58 +27 47 05.8 18.7   704 – Lincoln Laboratory ETS, New Mexico MPS 48623
2002 01 15.26078 07 19 19.50 +27 47 06.5 19.3   704 – Lincoln Laboratory ETS, New Mexico MPS 48623
2002 01 15.27661 07 19 18.42 +27 47 08.2 19.2   704 – Lincoln Laboratory ETS, New Mexico MPS 48623
2002 01 15.29335 07 19 17.32 +27 47 09.9 18.9   704 – Lincoln Laboratory ETS, New Mexico MPS 48623
